Location: Fort Worth, Tx
(32.7431°N, 97.3695°W)
Time: 01:34:05
(UTC-04:00)

Vanguard 2 - Pass Details

Date: 03 March 2024
Orbit: 552 x 2916 km, 32.9° (Epoch: 24 April)

Event Time Altitude Azimuth Distance (km) Brightness Sun altitude
Rises 22:24:21 0° 280° (W) 4,516 12.4 -37.3°
Reaches altitude 10° 22:26:53 10° 279° (W) 3,797 11.8 -37.8°
Maximum altitude 22:37:32 78° 196° (SSW) 2,254 9.6 -39.9°
Enters shadow 22:38:24 76° 162° (SSE) 2,315 9.6 -40.0°
